User: anonymous   Login
Location: Izdebno
(52.6670°N, 16.2170°E)
Time: 08:32:51
(UTC+01:00)
Language:

Vanguard 3 - Orbit

View from above orbital plane
View from above orbital plane
View from above satellite
View from above satellite

Ground track
Ground track

The orbit data is extracted from the following two-line orbital elements,

1    20U 59007A   24057.05757347  .00001580  00000-0  62590-3 0  9998
2    20  33.3530  51.3841 1654978 229.9583 114.3863 11.58170799386798
Epoch (UTC): 26 February 2024 01:22:54
Eccentricity: 0.1654978
inclination: 33.3530°
perigee height: 508 km
apogee height: 3239 km
right ascension of ascending node: 51.3841°
argument of perigee: 229.9583°
revolutions per day: 11.58170799
mean anomaly at epoch: 114.3863°
orbit number at epoch: 38679

The dashed part of the orbit path shows where the satellite is in the earth's shadow,  

DLR